Date,TemperatureHighF,TemperatureAvgF,TemperatureLowF,DewpointHighF,DewpointAvgF,DewpointLowF,HumidityHigh,HumidityAvg,HumidityLow,PressureMaxIn,PressureMinIn,WindSpeedMaxMPH,WindSpeedAvgMPH,GustSpeedMaxMPH,PrecipitationSumIn
2013-3-1,56.7,38.8,30.1,33.7,27.1,23.9,83,64,39,30.32,30.19,18,1,18,0.00
2013-3-2,58.8,43.9,29.9,30.3,27.0,24.0,81,54,29,30.45,30.23,14,2,14,0.00
2013-3-3,72.3,55.8,37.1,43.0,33.3,26.1,67,45,27,30.23,29.77,25,7,25,0.00
2013-3-4,89.7,69.8,54.9,50.3,43.4,36.5,65,43,16,29.79,29.55,25,9,25,0.00
2013-3-5,60.0,50.9,38.4,43.3,27.1,19.1,68,42,22,30.38,29.78,26,4,26,0.00
2013-3-6,64.0,48.4,31.5,28.3,24.5,19.2,77,42,19,30.48,30.20,13,0,13,0.00
2013-3-7,72.6,57.8,39.2,38.7,30.2,24.0,60,37,19,30.24,30.07,21,3,21,0.00
2013-3-8,62.9,58.6,54.4,56.6,51.1,38.5,90,76,47,30.17,29.96,19,2,19,0.01
2013-3-9,69.4,63.8,57.9,64.5,59.4,55.3,94,86,76,29.96,29.62,29,7,29,1.38
2013-3-10,57.9,50.9,37.3,56.2,40.4,31.5,95,68,50,30.10,29.70,22,3,22,0.06
2013-3-11,63.4,47.1,32.4,33.0,29.3,23.5,89,55,24,30.14,30.00,12,1,13,0.00
2013-3-12,69.3,53.2,36.9,34.5,31.2,26.1,80,47,25,30.31,30.03,17,1,17,0.00
2013-3-13,71.2,56.0,38.2,41.9,36.7,32.2,91,52,28,30.45,30.30,13,0,13,0.00
2013-3-14,80.2,60.3,48.1,49.1,39.9,33.7,68,48,32,30.33,30.14,21,3,21,0.00
2013-3-15,83.2,68.7,54.4,56.3,49.5,44.4,86,54,28,30.15,29.85,26,8,26,0.00
2013-3-16,81.8,70.5,57.8,60.6,55.0,46.5,83,59,46,29.86,29.64,26,10,26,0.00
2013-3-17,75.2,67.4,56.9,61.1,54.4,48.3,84,64,45,29.77,29.64,23,4,23,0.00
2013-3-18,71.8,62.2,55.4,59.0,48.2,39.0,91,62,43,30.00,29.61,20,3,20,0.00
2013-3-19,69.0,58.4,47.0,43.6,38.6,34.3,72,49,34,30.13,29.95,17,1,17,0.00
2013-3-20,68.8,58.0,46.6,41.7,36.0,28.6,75,46,24,30.31,30.02,9,0,9,0.00
2013-3-21,71.8,61.4,53.9,58.3,44.4,31.1,77,54,42,30.02,29.54,0,0,0,0.00
2013-3-22,66.3,53.3,46.1,60.7,48.4,41.9,90,84,64,29.86,29.53,0,0,0,0.00
2013-3-23,54.8,49.7,46.8,50.1,46.7,43.6,94,89,82,29.86,29.67,0,0,0,0.20
2013-3-24,55.5,46.4,38.1,46.6,30.8,20.7,91,57,34,30.20,29.83,0,0,0,0.01
2013-3-25,57.7,44.5,30.6,30.0,23.2,18.6,77,46,23,30.42,30.19,0,0,0,0.00
2013-3-26,61.6,42.6,28.5,31.5,24.3,21.1,80,51,28,30.52,30.30,0,0,0,0.00
2013-3-27,71.3,57.1,40.4,44.7,35.3,25.1,59,45,32,30.31,30.06,0,0,0,0.00
2013-3-28,70.7,62.6,51.4,58.1,52.6,44.5,85,70,60,30.20,30.05,0,0,0,0.00
2013-3-29,78.0,68.3,61.2,60.1,57.9,56.0,84,70,52,30.17,29.99,0,0,0,0.00
2013-3-30,77.8,67.5,55.7,65.3,60.3,53.7,95,79,62,30.08,29.84,0,0,0,0.82
2013-3-31,76.3,67.2,57.2,62.3,57.8,51.7,92,73,48,29.97,29.76,0,0,0,0.01